When you browse on this site, cookies collect data to enhance your experience and personalize the content and advertising you see.
Visit our Privacy Policy to learn more. By continuing to use the site, you agree to this use of cookies and data.
  • In Hungary
  • List of Countries
  • For 7 days
  • Water Temperature
  • Satellite Maps
  • Weather Map
  • News
  • Weather Widgets
  • user-avatar
    Login

    Hourly Weather Dashhovuz

    Today, 24 April, Wednesday

    Time Temperature Precipitation Wind Pressure Humidity
    00:00 +13°C° 0 mm 6 mps 755 mmHg 37%
    01:00 +11°C° 0 mm 6 mps 755 mmHg 39%
    02:00 +11°C° 0 mm 6 mps 755 mmHg 41%
    03:00 +10°C° 0 mm 6 mps 755 mmHg 43%
    04:00 +10°C° 0 mm 6 mps 755 mmHg 46%
    05:00 +10°C° 0 mm 6 mps 756 mmHg 47%
    06:00 +10°C° 0 mm 6 mps 756 mmHg 48%
    07:00 +10°C° 0 mm 6 mps 756 mmHg 48%
    08:00 +11°C° 0 mm 6 mps 757 mmHg 44%
    09:00 +13°C° 0 mm 6 mps 757 mmHg 39%
    10:00 +15°C° 0 mm 6 mps 758 mmHg 25%
    11:00 +16°C° 0 mm 6 mps 758 mmHg 23%
    12:00 +16°C° 0 mm 6 mps 758 mmHg 21%
    13:00 +17°C° 0 mm 6 mps 758 mmHg 19%
    14:00 +17°C° 0 mm 6 mps 758 mmHg 20%
    15:00 +17°C° 0 mm 7 mps 758 mmHg 21%
    16:00 +17°C° 0 mm 7 mps 757 mmHg 20%
    17:00 +17°C° 0 mm 6 mps 758 mmHg 21%
    18:00 +16°C° 0 mm 6 mps 758 mmHg 21%
    19:00 +16°C° 0 mm 5 mps 758 mmHg 22%
    20:00 +15°C° 0 mm 5 mps 758 mmHg 25%
    21:00 +15°C° 0 mm 5 mps 758 mmHg 28%
    22:00 +14°C° 0 mm 5 mps 758 mmHg 30%
    23:00 +14°C° 0 mm 5 mps 758 mmHg 33%

    Tomorrow, 25 April, Thursday

    Time Temperature Precipitation Wind Pressure Humidity
    00:00 +14°C° 0 mm 5 mps 758 mmHg 35%
    01:00 +13°C° 0 mm 6 mps 758 mmHg 37%
    02:00 +13°C° 0.1 mm 6 mps 758 mmHg 44%
    03:00 +12°C° 0.1 mm 5 mps 758 mmHg 50%
    04:00 +12°C° 0.1 mm 5 mps 758 mmHg 56%
    05:00 +11°C° 0 mm 6 mps 759 mmHg 56%
    06:00 +11°C° 0 mm 6 mps 759 mmHg 55%
    07:00 +11°C° 0 mm 6 mps 759 mmHg 54%
    08:00 +12°C° 0 mm 7 mps 759 mmHg 49%
    09:00 +14°C° 0 mm 7 mps 759 mmHg 44%
    10:00 +15°C° 0 mm 8 mps 759 mmHg 40%
    11:00 +16°C° 0.1 mm 8 mps 759 mmHg 38%
    12:00 +16°C° 0.1 mm 8 mps 759 mmHg 37%
    13:00 +17°C° 0.1 mm 8 mps 759 mmHg 36%
    14:00 +17°C° 0.1 mm 8 mps 759 mmHg 38%
    15:00 +16°C° 0.1 mm 8 mps 759 mmHg 40%
    16:00 +16°C° 0.1 mm 7 mps 759 mmHg 42%
    17:00 +16°C° 0 mm 7 mps 759 mmHg 41%
    18:00 +16°C° 0 mm 6 mps 759 mmHg 40%
    19:00 +16°C° 0 mm 5 mps 759 mmHg 39%
    20:00 +16°C° 0.3 mm 5 mps 759 mmHg 43%
    21:00 +15°C° 0.3 mm 5 mps 759 mmHg 48%
    22:00 +14°C° 0.3 mm 5 mps 759 mmHg 52%
    23:00 +14°C° 0.1 mm 5 mps 759 mmHg 55%

    Day after tomorrow, 26 April, Friday

    Time Temperature Precipitation Wind Pressure Humidity
    00:00 +14°C° 0.1 mm 4 mps 759 mmHg 58%
    01:00 +13°C° 0.1 mm 4 mps 759 mmHg 61%
    02:00 +13°C° 0 mm 4 mps 759 mmHg 61%
    03:00 +12°C° 0 mm 4 mps 759 mmHg 62%
    04:00 +12°C° 0 mm 4 mps 759 mmHg 63%
    05:00 +12°C° 0 mm 4 mps 760 mmHg 61%
    06:00 +13°C° 0 mm 4 mps 760 mmHg 60%
    07:00 +13°C° 0 mm 3 mps 760 mmHg 58%
    08:00 +14°C° 0 mm 3 mps 760 mmHg 52%
    09:00 +17°C° 0 mm 3 mps 760 mmHg 45%
    10:00 +18°C° 0 mm 3 mps 761 mmHg 39%
    11:00 +19°C° 0 mm 3 mps 761 mmHg 35%
    12:00 +19°C° 0 mm 3 mps 760 mmHg 31%
    13:00 +20°C° 0 mm 3 mps 760 mmHg 28%
    14:00 +20°C° 0 mm 3 mps 760 mmHg 27%
    15:00 +21°C° 0 mm 3 mps 759 mmHg 26%
    16:00 +21°C° 0 mm 3 mps 759 mmHg 24%
    17:00 +21°C° 0 mm 3 mps 759 mmHg 25%
    18:00 +20°C° 0 mm 3 mps 759 mmHg 26%
    19:00 +20°C° 0 mm 3 mps 759 mmHg 26%
    20:00 +20°C° 0 mm 3 mps 759 mmHg 28%
    21:00 +19°C° 0 mm 2 mps 759 mmHg 29%
    22:00 +19°C° 0 mm 2 mps 760 mmHg 31%
    23:00 +19°C° 0 mm 1 mps 759 mmHg 33%

    27 April, Saturday

    Time Temperature Precipitation Wind Pressure Humidity
    00:00 +18°C° 0 mm 1 mps 759 mmHg 35%
    01:00 +18°C° 0 mm 1 mps 759 mmHg 37%
    02:00 +16°C° 0 mm 1 mps 759 mmHg 38%
    03:00 +16°C° 0 mm 1 mps 759 mmHg 40%
    04:00 +14°C° 0 mm 0 mps 759 mmHg 41%
    05:00 +15°C° 0 mm 0 mps 760 mmHg 39%
    06:00 +16°C° 0 mm 0 mps 760 mmHg 36%
    07:00 +17°C° 0 mm 0 mps 760 mmHg 34%
    08:00 +17°C° 0 mm 0 mps 760 mmHg 32%
    09:00 +18°C° 0 mm 0 mps 760 mmHg 30%
    10:00 +19°C° 0 mm 0 mps 761 mmHg 28%
    11:00 +22°C° 0 mm 1 mps 760 mmHg 26%
    12:00 +22°C° 0 mm 1 mps 760 mmHg 24%
    13:00 +23°C° 0 mm 1 mps 760 mmHg 23%
    14:00 +23°C° 0 mm 1 mps 759 mmHg 22%
    15:00 +24°C° 0 mm 1 mps 759 mmHg 21%
    16:00 +24°C° 0 mm 1 mps 759 mmHg 20%
    17:00 +24°C° 0 mm 1 mps 759 mmHg 20%
    18:00 +24°C° 0 mm 1 mps 759 mmHg 20%
    19:00 +23°C° 0 mm 1 mps 759 mmHg 21%
    20:00 +23°C° 0 mm 1 mps 759 mmHg 22%
    21:00 +22°C° 0 mm 1 mps 759 mmHg 24%
    22:00 +22°C° 0 mm 1 mps 759 mmHg 25%
    23:00 +21°C° 0 mm 1 mps 759 mmHg 26%

    28 April, Sunday

    Time Temperature Precipitation Wind Pressure Humidity
    00:00 +20°C° 0 mm 1 mps 758 mmHg 27%
    01:00 +19°C° 0 mm 2 mps 758 mmHg 28%
    02:00 +18°C° 0 mm 2 mps 758 mmHg 30%
    03:00 +18°C° 0 mm 2 mps 757 mmHg 31%
    04:00 +18°C° 0 mm 2 mps 757 mmHg 32%
    05:00 +18°C° 0 mm 2 mps 757 mmHg 31%
    06:00 +19°C° 0 mm 2 mps 757 mmHg 30%
    07:00 +20°C° 0 mm 2 mps 757 mmHg 29%
    08:00 +21°C° 0 mm 2 mps 757 mmHg 25%
    09:00 +23°C° 0 mm 2 mps 757 mmHg 22%
    10:00 +24°C° 0 mm 2 mps 757 mmHg 19%
    11:00 +25°C° 0 mm 2 mps 757 mmHg 18%
    12:00 +25°C° 0 mm 3 mps 756 mmHg 17%
    13:00 +26°C° 0 mm 3 mps 755 mmHg 16%
    14:00 +26°C° 0 mm 3 mps 755 mmHg 15%
    15:00 +26°C° 0 mm 3 mps 755 mmHg 15%
    16:00 +26°C° 0 mm 2 mps 754 mmHg 14%
    17:00 +26°C° 0 mm 2 mps 754 mmHg 15%
    18:00 +26°C° 0 mm 2 mps 754 mmHg 15%
    19:00 +25°C° 0 mm 2 mps 754 mmHg 16%
    20:00 +25°C° 0 mm 2 mps 754 mmHg 17%
    21:00 +24°C° 0 mm 2 mps 754 mmHg 18%
    22:00 +23°C° 0 mm 2 mps 754 mmHg 19%
    23:00 +23°C° 0 mm 2 mps 753 mmHg 20%

    29 April, Monday

    Time Temperature Precipitation Wind Pressure Humidity
    00:00 +21°C° 0 mm 2 mps 753 mmHg 20%
    01:00 +20°C° 0 mm 2 mps 753 mmHg 21%
    02:00 +20°C° 0 mm 2 mps 753 mmHg 22%
    03:00 +19°C° 0 mm 2 mps 752 mmHg 23%
    04:00 +19°C° 0 mm 2 mps 752 mmHg 23%
    05:00 +20°C° 0 mm 2 mps 752 mmHg 23%
    06:00 +20°C° 0 mm 2 mps 752 mmHg 22%
    07:00 +21°C° 0 mm 3 mps 752 mmHg 21%
    08:00 +22°C° 0 mm 3 mps 752 mmHg 19%
    09:00 +25°C° 0 mm 3 mps 752 mmHg 17%
    10:00 +26°C° 0 mm 4 mps 752 mmHg 15%
    11:00 +27°C° 0 mm 3 mps 752 mmHg 14%
    12:00 +27°C° 0 mm 2 mps 751 mmHg 13%
    13:00 +28°C° 0 mm 2 mps 751 mmHg 13%
    14:00 +28°C° 0 mm 2 mps 750 mmHg 13%
    15:00 +28°C° 0 mm 2 mps 750 mmHg 13%
    16:00 +29°C° 0 mm 2 mps 750 mmHg 13%
    17:00 +29°C° 0 mm 2 mps 749 mmHg 13%
    18:00 +29°C° 0 mm 2 mps 749 mmHg 13%
    19:00 +28°C° 0 mm 2 mps 749 mmHg 13%
    20:00 +28°C° 0 mm 2 mps 749 mmHg 15%
    21:00 +27°C° 0 mm 2 mps 749 mmHg 17%
    22:00 +26°C° 0 mm 3 mps 750 mmHg 19%
    23:00 +25°C° 0 mm 3 mps 749 mmHg 20%
    Show more